This is the latest recevied weather packets stored in our database for station/object KO4ZGL-13. If no packets are shown the sender has not sent any weather packets the latest 10 day(s).
| Time | Temp. | Humidity | Pressure | Rain* | Wind** | Luminosity | Snow |
|---|---|---|---|---|---|---|---|
| 1788465857 | 35° C | 65% | 1016.8 hPa | 0 mm | - | 515 W/m² | - |
| 1788465552 | 35° C | 64% | 1017 hPa | 0 mm | - | 530 W/m² | - |
| 1788465248 | 35° C | 64% | 1016.9 hPa | 0 mm | - | 548 W/m² | - |
| 1788464942 | 35° C | 63% | 1016.8 hPa | 0 mm | - | 512 W/m² | - |
| 1788464638 | 35° C | 61% | 1016.8 hPa | 0 mm | - | 517 W/m² | - |
| 1788464333 | 35.56° C | 63% | 1016.7 hPa | 0 mm | - | 544 W/m² | - |
| 1788464030 | 35.56° C | 61% | 1016.9 hPa | 0 mm | - | 559 W/m² | - |
| 1788463724 | 35° C | 62% | 1016.8 hPa | 0 mm | - | 547 W/m² | - |
| 1788463420 | 35° C | 64% | 1016.8 hPa | 0 mm | - | 584 W/m² | - |
| 1788463116 | 35° C | 63% | 1017 hPa | 0 mm | - | 604 W/m² | - |
| 1788462812 | 34.44° C | 65% | 1017 hPa | 0 mm | - | 614 W/m² | - |
| 1788462511 | 35° C | 66% | 1017 hPa | 0 mm | - | 499 W/m² | - |
| 1788462206 | 35° C | 63% | 1016.9 hPa | 0 mm | - | 660 W/m² | - |
| 1788461900 | 34.44° C | 67% | 1017.1 hPa | 0 mm | - | 634 W/m² | - |
| 1788461595 | 34.44° C | 66% | 1017.2 hPa | 0 mm | - | 629 W/m² | - |
| 1788461291 | 34.44° C | 66% | 1017.1 hPa | 0 mm | - | 639 W/m² | - |
| 1788460988 | 34.44° C | 65% | 1016.9 hPa | 0 mm | - | 244 W/m² | - |
| 1788460682 | 35° C | 65% | 1017.4 hPa | 0 mm | - | 725 W/m² | - |
| 1788460376 | 35° C | 64% | 1017.3 hPa | 0 mm | - | 741 W/m² | - |
| 1788460075 | 35° C | 68% | 1017.5 hPa | 0 mm | - | 692 W/m² | - |
| 1788459770 | 35° C | 66% | 1017.4 hPa | 0 mm | - | 712 W/m² | - |
| 1788459469 | 35° C | 66% | 1017.2 hPa | 0 mm | - | 720 W/m² | - |
| 1788459165 | 34.44° C | 67% | 1017.6 hPa | 0 mm | - | 355 W/m² | - |
| 1788458860 | 33.89° C | 65% | 1017.4 hPa | 0 mm | - | 331 W/m² | - |
| 1788458558 | 34.44° C | 66% | 1017.6 hPa | 0 mm | - | 655 W/m² | - |
* Rain latest hour (hover to see other rain measurements)
** Current wind speed in m/s (hover to see current wind gust speed)